Tracking 19476 objects as of 17-Jan-2019
HD Live streaming from Space Station
objects crossing your sky now

SOLRAD 7A

Track SOLRAD 7A now!
10-day predictions
SOLRAD 7A is classified as:


NORAD ID: 730
Int'l Code: 1964-001D
Perigee: 903.8 km
Apogee: 928.5 km
Inclination: 69.9 °
Period: 103.2 minutes
Semi major axis: 7287 km
RCS: 0.4496 m2 (medium)
Launch date: January 11, 1964
Source: United States (US)
Launch site: AIR FORCE WESTERN TEST RANGE (AFWTR)
aabbcc
Your satellite tracking list
Your tracking list is empty




NASA's NSSDC Master Catalog

Two Line Element Set (TLE):
1   730U 64001D   19017.19978650 -.00000047  00000-0  51390-5 0  9999
2   730  69.9075 329.6771 0016954 270.1184 195.7475 13.95606453683356
Source of the keplerian elements: AFSPC